Regional Weather Roundup
Issued by NWS

Home | Current Version | Previous Version | Graphics & Text | Print | Product List | Glossary On
Versions: 1 2 3 4 5 6 7 8 9 10 11 12 13 14 15 16 17 18 19 20 21 22 23 24 25 26 27
000
ASUS45 KCYS 202210
RWRWY

WYOMING REGIONAL WEATHER ROUNDUP
NATIONAL WEATHER SERVICE CHEYENNE WY
400 PM MDT SUN APR 20 2014

NOTE:  "FAIR" INDICATES FEW OR NO CLOUDS BELOW 12,000 FEET
WITH NO SIGNIFICANT WEATHER AND/OR OBSTRUCTIONS TO VISIBILITY.

WYZ001-202300-
YELLOWSTONE NATIONAL PARK

CITY           SKY/WX    TMP DP  RH WIND       PRES   REMARKS
LK YELLOWSTONE   N/A     48  14  25 W13       30.24R
W YELLOWSTONE  NOT AVBL

$$
WYZ002>013-054>058-071-098>099-202300-
NORTHERN WYOMING

CITY           SKY/WX    TMP DP  RH WIND       PRES   REMARKS
JACKSON        SUNNY     55  21  26 W8G18     30.19S
CODY           MOSUNNY   63  30  29 N5        30.07S
GREYBULL       SUNNY     70  25  18 N15G22    30.01S
WORLAND        SUNNY     70  29  21 N9G21     30.01R
SHERIDAN         N/A     61  23  23 W13G22      N/A
BUFFALO        SUNNY     59  32  36 N22       30.09F
GILLETTE       SUNNY     63  32  31 N12       30.06S
HULETT         FAIR      63  28  27 NW8G20    30.06
NEWCASTLE      FAIR      64  28  25 NW21G26   30.02

$$
WYZ014>020-022>026-101>103-202300-
CENTRAL WYOMING

CITY           SKY/WX    TMP DP  RH WIND       PRES   REMARKS
BIG PINEY      SUNNY     60  15  17 VRB5G17   30.18S
PINEDALE       CLEAR     54  19  26 NW18      30.21S
DUBOIS         FAIR      55   7  14 NW16G23   30.15S
LANDER         SUNNY     70  13  11 W15G21    30.02F
RIVERTON       MOSUNNY   71  18  13 N12G18    30.03F
CASPER         MOSUNNY   68  32  26 N13G30    30.03S
DOUGLAS        MOSUNNY   70  30  22 N16       30.02S

$$
WYZ021-027>030-104>119-202300-
SOUTHERN WYOMING

CITY           SKY/WX    TMP DP  RH WIND       PRES   REMARKS
EVANSTON       MOSUNNY   61  23  23 W20G29    30.20F
KEMMERER       CLEAR     59  18  20 W20G33    30.20S
FORT BRIDGER   FAIR      63  23  21 W16G29    30.20F
ROCK SPRINGS   MOSUNNY   65  18  16 W26G35    30.14S
DIXON          MOCLDY    57  38  50 S14       30.21R
RAWLINS        MOSUNNY   65  17  15 W20G28    30.10F
SARATOGA       MOCLDY    59  28  31 SW3       30.13F
LARAMIE        PTSUNNY   63  23  21 NW16G24   30.12F
CHEYENNE       PTSUNNY   69  27  20 NW17G25   30.06R
TORRINGTON     MOSUNNY   75  25  15 NW14G25   29.94F
PINE BLUFFS    FAIR      72  28  20 N17G25    30.01S

$$



USA.gov is the U.S. government's official web portal to all federal, state and local government web resources and services.